Lid_Strength_Index
2 2 2 3 2 2 2 2 3 3 4 4 4 4 4 5 6 7 7 5 3 3 2 1 1 1 1 1 0 -1 -2 -2 -2 -2 -2 -1 -0 -0 -0 -1 -1 -1 -1
3 3 4 4 4 3 3 3 5 4 5 5 4 4 5 5 5 5 7 6 3 3 2 2 1 2 2 2 2 1 0 -1 -2 -2 -2 -1 -1 -0 -0 -0 -1 -1 -1
5 5 5 5 4 5 5 5 5 4 5 5 5 5 5 5 6 6 6 7 7 4 3 3 2 2 2 1 1 2 2 1 1 0 -1 -2 -1 -1 -1 -1 -1 -1 -0
5 5 5 5 6 6 5 6 6 7 8 8 8 7 6 6 6 6 7 7 7 7 6 4 3 3 3 2 1 1 1 2 2 2 1 0 -1 -2 -1 -1 -1 -1 -0
7 7 8 8 8 9 9 7 8 9 10 10 8 8 6 7 8 7 8 8 8 9 8 8 5 7 6 4 2 2 1 1 2 2 2 2 1 0 -1 -2 -2 -1 -1
9 9 10 11 11 11 11 9 10 11 12 12 8 8 8 9 9 9 8 9 10 10 10 11 9 10 7 5 3 2 2 2 2 3 3 3 2 2 1 0 -2 -2 -2
12 12 12 13 13 13 14 13 11 13 13 13 10 9 9 11 9 11 11 12 12 11 11 11 10 12 11 6 4 3 2 2 3 3 3 3 3 3 2 1 1 -0 -2
13 13 13 14 14 14 14 15 14 15 15 14 14 12 12 10 12 11 13 13 14 13 13 11 12 12 12 10 7 4 3 3 3 4 4 5 5 4 3 3 2 1 1
14 14 14 14 14 15 15 15 16 15 16 15 15 14 17 18 15 12 14 15 14 14 14 13 12 12 11 10 8 7 4 3 3 4 4 5 5 5 5 4 3 3 2
15 14 14 15 15 15 15 15 15 16 16 17 16 14 16 16 18 18 16 15 14 14 14 13 13 12 11 11 8 8 7 6 5 5 5 5 5 5 5 5 5 4 3
15 15 15 16 15 15 15 16 16 16 16 17 17 17 17 17 17 18 19 18 16 14 14 13 13 13 11 10 10 9 8 7 7 7 7 6 5 5 5 4 4 5 5
16 16 16 16 16 16 16 16 16 17 17 17 17 16 16 17 17 18 19 18 18 16 14 13 13 12 11 11 10 9 8 8 7 7 7 7 6 5 5 4 4 4 4
17 17 17 17 17 16 16 17 17 17 17 17 17 17 16 16 16 16 17 18 18 16 14 13 12 12 11 11 11 9 9 8 8 8 7 7 7 7 6 5 5 4 4
17 17 17 17 17 17 17 17 17 17 17 17 17 17 16 16 15 15 15 16 17 17 16 15 13 13 11 11 11 10 11 9 9 8 8 7 7 7 7 6 6 5 5
17 17 17 18 18 17 17 17 18 18 17 17 17 17 17 16 15 15 14 14 15 18 18 16 15 13 13 12 11 12 12 11 9 9 8 8 7 7 6 6 6 6 5
17 18 18 18 18 18 18 18 18 18 18 18 17 17 17 16 15 15 15 14 15 16 18 15 15 14 13 12 11 12 12 11 10 9 9 9 8 7 7 7 7 6 5
18 18 18 18 18 18 18 18 18 18 18 17 17 17 16 16 16 16 15 15 15 15 17 15 14 13 13 13 12 12 11 12 12 10 9 8 8 8 8 8 8 7 7
18 18 18 18 18 18 18 18 18 18 18 17 16 16 16 14 15 16 15 16 16 15 15 16 14 13 13 13 13 13 12 11 12 10 8 8 8 9 9 9 9 9 8
18 18 18 18 18 18 18 18 17 17 16 16 15 15 15 15 15 15 15 16 15 13 14 14 14 13 13 12 13 12 12 12 11 10 9 9 8 8 8 9 9 9 10
19 19 18 18 18 18 18 17 17 16 16 15 14 14 14 14 14 15 14 14 13 13 13 14 14 13 13 12 12 13 13 12 12 11 10 10 9 9 9 8 9 10 10
18 18 18 18 18 18 17 17 16 16 15 15 14 14 14 13 12 11 12 13 13 13 13 13 13 13 13 12 13 12 13 12 12 11 11 11 11 11 11 10 10 9 9
18 18 18 19 19 17 15 13 15 15 14 14 14 14 13 13 12 10 9 9 9 12 16 14 12 12 12 12 11 12 12 13 14 10 11 12 10 11 11 10 9 8 8
18 19 19 18 18 18 13 12 12 13 14 14 14 14 13 12 12 12 10 9 9 8 7 9 11 11 12 11 12 12 12 12 13 11 12 13 11 12 11 10 8 8 8
18 19 19 18 18 17 12 11 11 13 14 14 14 13 13 12 12 11 11 11 10 9 9 9 10 10 10 9 11 12 13 13 13 12 11 14 11 12 11 10 8 7 8
19 18 18 18 18 17 11 10 11 14 14 14 13 12 12 12 10 8 9 10 11 10 8 7 7 7 7 8 9 12 15 15 16 14 10 13 11 12 11 11 9 7 7
17 17 17 17 17 18 12 10 11 13 17 14 13 11 10 9 8 6 8 11 14 12 11 12 12 11 10 10 9 11 13 15 15 17 12 14 14 14 15 12 11 11 11